CAPE
11 11 12 14 17 20 7 5 1 0 0 0 0 0 0 0 0 0 0 1 1 2 1 2 2 2 1 0 0 0 0 0 0 0 0 0 0 0 0 0 0 0 0
12 11 14 11 9 6 6 2 2 2 1 0 0 0 0 0 0 0 0 0 1 3 2 4 1 0 0 0 0 0 0 0 0 0 0 0 0 0 0 0 0 0 0
5 15 10 4 1 1 0 1 2 1 1 0 0 0 0 0 0 0 1 1 0 0 0 0 0 0 0 0 0 0 0 0 0 0 0 0 0 0 0 0 0 0 0
1 6 8 2 0 0 0 0 0 0 1 0 0 0 0 0 0 0 0 0 0 0 0 0 0 0 0 0 0 0 0 0 0 0 0 0 0 0 0 0 0 0 0
0 0 6 2 0 0 0 0 0 0 0 0 1 0 0 0 0 0 0 0 0 0 0 0 0 0 0 0 0 0 0 0 0 0 0 0 0 0 0 0 0 0 0
0 0 2 1 0 0 0 0 0 0 0 2 0 0 0 0 0 0 0 0 0 0 0 0 0 0 0 0 0 0 0 0 0 0 0 0 0 0 0 1 2 1 2
0 0 0 0 0 0 0 0 0 0 0 0 0 0 0 0 0 0 0 0 0 0 0 0 0 0 0 0 0 0 0 0 0 0 0 0 0 0 0 0 1 3 4
0 0 0 0 0 0 0 0 0 0 0 0 0 0 0 0 0 0 0 0 0 0 0 0 0 0 0 0 0 0 0 0 0 0 0 0 0 0 0 0 0 2 4
0 0 0 0 0 0 0 0 0 0 0 0 0 0 0 0 0 0 0 0 0 0 0 0 0 0 0 0 0 0 0 0 0 0 0 0 0 0 0 0 0 1 3
0 0 0 0 0 0 0 0 0 0 0 0 0 0 0 0 0 0 0 0 0 0 0 0 0 0 0 0 0 0 0 0 0 0 0 0 0 0 0 0 0 1 4
0 0 0 0 0 0 0 0 0 0 0 0 0 0 0 0 0 0 0 0 0 0 0 0 0 0 0 0 0 0 0 0 0 0 0 0 0 0 0 0 2 6 7
0 0 0 0 0 0 0 0 0 0 0 0 0 0 0 0 0 0 0 0 0 0 0 0 0 0 0 0 0 0 0 0 0 0 0 0 0 0 0 0 0 1 0
0 0 0 0 0 0 0 0 0 0 0 0 0 0 0 0 0 0 0 0 0 0 0 0 0 0 0 0 0 0 0 0 0 0 0 0 0 0 0 0 0 0 0
0 0 0 0 0 0 0 0 0 0 0 0 0 0 0 0 0 0 0 0 0 0 0 0 0 0 0 0 0 0 0 0 0 0 0 0 0 0 0 0 0 0 0
0 0 0 0 0 0 0 0 0 0 0 0 0 0 0 0 0 0 0 0 0 0 0 0 0 0 0 0 0 0 0 0 0 0 0 0 0 0 0 0 0 0 0
0 0 0 0 0 0 0 0 0 0 0 0 0 0 0 0 0 0 0 0 0 0 1 0 0 0 0 0 0 0 0 0 0 0 0 0 0 0 0 0 0 0 0
15 0 26 30 14 2 0 0 0 0 0 0 0 0 0 0 0 0 0 0 0 0 1 0 0 0 0 0 0 2 2 1 0 0 0 0 0 0 0 0 0 0 1
0 4 25 44 20 8 0 0 0 0 0 0 0 0 0 0 0 0 0 1 1 1 1 1 1 0 1 2 1 3 1 1 4 0 0 0 0 0 0 0 0 0 0
0 5 34 22 15 0 0 0 0 0 0 0 0 0 0 0 1 2 2 0 1 1 1 2 1 1 0 0 1 2 1 0 0 0 0 0 0 0 0 0 0 0 0
0 6 6 0 0 0 0 0 0 0 0 0 0 2 1 2 4 7 2 1 1 1 1 1 0 1 0 0 0 0 0 0 0 0 0 0 0 0 0 0 2 1 0
1 1 1 1 0 0 0 0 1 0 1 1 1 0 0 0 1 0 0 0 0 0 1 1 1 2 3 2 4 1 2 1 0 0 0 0 0 0 0 0 2 0 0
2 1 1 1 1 0 0 0 0 0 0 0 0 1 1 2 1 0 0 0 1 1 2 1 1 2 4 2 2 2 0 0 0 0 0 0 0 0 0 0 0 0 0
0 0 0 0 0 1 1 1 1 1 1 0 0 0 2 2 2 1 1 0 0 0 0 0 1 1 0 0 0 0 0 0 0 0 0 0 0 0 0 0 0 0 0
0 1 2 1 0 2 3 1 2 2 1 1 0 1 1 1 0 0 0 0 0 0 0 0 0 0 0 0 1 0 0 0 0 0 0 0 1 2 0 0 0 0 0
3 1 1 1 1 3 3 3 0 1 1 1 0 0 0 0 1 0 0 0 0 0 0 0 0 0 0 0 0 0 0 0 0 0 0 0 0 0 0 0 2 0 0
2 2 3 1 1 2 1 1 0 0 0 0 0 0 0 0 0 0 0 0 0 0 0 0 0 0 0 0 0 0 1 0 1 0 1 0 0 1 0 1 0 0 0
CIN
-0 -0 -1 -0 -0 -0 -1 -0 -0 -0 -0 -0 -0 -0 -0 -0 -0 -0 -0 -1 -1 -1 -0 -0 -0 -0 -0 -0 -0 -0 -0 -0 -0 -0 -0 -0 -0 -0 -0 -0 -0 -0 -0
-1 -0 -0 -1 -0 -1 -0 -0 -0 -0 -1 -0 -0 -0 -0 -0 -0 -0 -0 -0 -2 -1 -0 -0 -0 -0 -0 -0 -0 -0 -0 -0 -0 -0 -0 -0 -0 -0 -0 -0 -0 -0 -0
-1 -0 -0 -1 -0 -0 -0 -0 -0 -0 -0 -0 -0 -0 -0 -0 -0 -0 -0 -1 -0 -0 -0 -0 -0 -0 -0 -0 -0 -0 -0 -0 -0 -0 -0 -0 -0 -0 -0 -0 -0 -0 -0
-1 -1 -0 -1 -0 -0 -0 -0 -0 -0 -1 -0 -0 -0 -0 -0 -0 -0 -0 -0 -0 -0 -0 -0 -0 -0 -0 -0 -0 -0 -0 -0 -0 -0 -0 -0 -0 -0 -0 -0 -0 -0 -0
-0 -0 -0 -1 -0 -0 -0 -0 -0 -0 -0 -0 -0 -0 -0 -0 -0 -0 -0 -0 -0 -0 -0 -0 -0 -0 -0 -0 -0 -0 -0 -0 -0 -0 -0 -0 -0 -0 -0 -0 -0 -0 -0
-0 -0 -1 -0 -0 -0 -0 -0 -0 -0 -0 -0 -0 -0 -0 -0 -0 -0 -0 -0 -0 -0 -0 -0 -0 -0 -0 -0 -0 -0 -0 -0 -0 -0 -0 -0 -0 -0 -0 -0 -0 -0 -0
-0 -0 -0 -0 -0 -0 -0 -0 -0 -0 -0 -0 -0 -0 -0 -0 -0 -0 -0 -0 -0 -0 -0 -0 -0 -0 -0 -0 -0 -0 -0 -0 -0 -0 -0 -0 -0 -0 -0 -1 -0 -0 -1
-0 -0 -0 -0 -0 -0 -0 -0 -0 -0 -0 -0 -0 -0 -0 -0 -0 -0 -0 -0 -0 -0 -0 -0 -0 -0 -0 -0 -0 -0 -0 -0 -0 -0 -0 -0 -0 -0 -0 -0 -0 -0 -0
-0 -0 -0 -0 -0 -0 -0 -0 -0 -0 -0 -0 -0 -0 -0 -0 -0 -0 -0 -0 -0 -0 -0 -0 -0 -0 -0 -0 -0 -0 -0 -0 -0 -0 -0 -0 -0 -0 -0 -0 -0 -0 -1
-0 -0 -0 -0 -0 -0 -0 -0 -0 -0 -0 -0 -0 -0 -0 -0 -0 -0 -0 -0 -0 -0 -0 -0 -0 -0 -0 -0 -0 -0 -0 -0 -0 -0 -0 -0 -0 -0 -0 -0 -0 -0 -0
-0 -0 -0 -0 -0 -0 -0 -0 -0 -0 -0 -0 -0 -0 -0 -0 -0 -0 -0 -0 -0 -0 -0 -0 -0 -0 -0 -0 -0 -0 -0 -0 -0 -0 -0 -0 -0 -0 -0 -0 -0 -0 -0
-0 -0 -0 -0 -0 -0 -0 -0 -0 -0 -0 -0 -0 -0 -0 -0 -0 -0 -0 -0 -0 -0 -0 -0 -0 -0 -0 -0 -0 -0 -0 -0 -0 -0 -0 -0 -0 -0 -0 -0 -6 -21 -0
-0 -0 -0 -0 -0 -0 -0 -0 -0 -0 -0 -0 -0 -0 -0 -0 -0 -0 -0 -0 -0 -0 -0 -0 -0 -0 -0 -0 -0 -0 -0 -0 -0 -0 -0 -0 -0 -0 -0 -0 -0 -12 -1
-0 -0 -0 -0 -0 -0 -0 -0 -0 -0 -0 -0 -0 -0 -0 -0 -0 -0 -0 -0 -0 -0 -0 -0 -0 -0 -0 -0 -0 -0 -0 -0 -0 -0 -0 -0 -0 -0 -0 -0 -0 -0 -0
-0 -0 -0 -0 -0 -0 -0 -0 -0 -0 -0 -0 -0 -0 -0 -0 -0 -0 -0 -0 -0 -0 -0 -0 -0 -0 -0 -0 -0 -0 -0 -0 -0 -0 -0 -0 -0 -0 -0 -0 -0 -0 -0
-0 -0 -0 -0 -12 -0 -0 -0 -0 -0 -0 -0 -0 -0 -0 -0 -0 -0 -0 -0 -0 -0 -0 -0 -0 -0 -0 -0 -0 -0 -0 -0 -0 -0 -0 -0 -0 -0 -0 -0 -0 -0 -0
-57 -0 -70 -82 -110 -92 -0 -0 -0 -0 -0 -0 -0 -0 -0 -0 -0 -0 -0 -0 -1 -0 -0 -0 -0 -0 -0 -0 -0 -0 -0 -0 -0 -0 -0 -0 -0 -0 -0 -0 -0 -0 -0
-0 -49 -82 -104 -126 -154 -0 -0 -0 -0 -0 -0 -0 -0 -0 -0 -0 -0 -0 -0 -0 -0 -0 -0 -0 -0 -0 -0 -1 -1 -1 -0 -0 -0 -0 -0 -0 -0 -0 -0 -0 -0 -0
-0 -78 -89 -96 -131 -0 -0 -0 -0 -0 -0 -0 -0 -0 -0 -0 -85 -65 -45 -0 -45 -0 -0 -0 -0 -0 -0 -0 -0 -0 -0 -0 -0 -0 -0 -0 -0 -0 -0 -0 -0 -0 -0
-0 -92 -84 -27 -0 -0 -0 -0 -0 -0 -0 -0 -0 -0 -0 -51 -42 -47 -13 -0 -1 -0 -0 -0 -0 -0 -0 -0 -0 -0 -0 -0 -0 -0 -0 -0 -0 -0 -0 -0 -0 -0 -0
-0 -27 -0 -0 -0 -0 -0 -0 -0 -0 -50 -45 -0 -0 -0 -0 -0 -0 -0 -0 -0 -0 -0 -0 -0 -0 -0 -0 -0 -0 -0 -0 -0 -0 -0 -0 -0 -0 -0 -0 -0 -0 -0
-0 -0 -0 -0 -0 -0 -0 -0 -0 -0 -0 -0 -0 -0 -0 -0 -0 -0 -0 -0 -0 -0 -0 -0 -0 -0 -0 -0 -0 -0 -0 -0 -0 -0 -0 -0 -0 -0 -0 -0 -0 -0 -0
-0 -0 -0 -0 -0 -0 -0 -0 -0 -0 -0 -0 -0 -0 -0 -0 -0 -0 -0 -0 -0 -0 -0 -0 -0 -0 -0 -0 -0 -0 -0 -0 -0 -0 -0 -0 -0 -0 -0 -0 -0 -0 -0
-0 -0 -0 -0 -0 -0 -0 -0 -0 -0 -0 -0 -0 -0 -0 -0 -0 -0 -0 -0 -0 -0 -0 -0 -0 -0 -0 -0 -0 -0 -0 -0 -0 -0 -0 -0 -0 -0 -0 -0 -0 -0 -0
-0 -0 -0 -0 -0 -0 -0 -0 -0 -0 -0 -0 -0 -0 -0 -0 -0 -0 -0 -0 -0 -0 -0 -0 -0 -0 -0 -0 -0 -0 -0 -0 -0 -0 -0 -0 -0 -0 -0 -0 -0 -0 -0
-0 -0 -0 -0 -0 -0 -0 -0 -0 -0 -0 -0 -0 -0 -0 -0 -0 -0 -0 -0 -0 -0 -0 -0 -0 -0 -0 -0 -0 -0 -0 -0 -0 -0 -1 -0 -0 -0 -0 -0 -0 -0 -0
Wind_Speed
4 5 3 2 4 4 2 3 4 4 4 5 6 6 7 9 10 11 12 13 14 14 15 16 16 17 17 17 17 18 18 18 18 18 18 18 18 18 19 20 22 22 22
6 5 5 5 5 5 3 2 3 3 5 6 6 7 7 8 9 10 11 11 13 13 13 14 15 15 15 15 15 16 16 16 16 16 16 16 16 17 18 22 24 24 24
8 5 6 6 6 6 6 4 4 5 6 7 7 7 8 8 9 10 10 11 11 11 13 13 13 13 13 13 13 14 15 15 15 15 14 14 15 16 21 26 26 26 27
6 5 6 7 6 5 5 4 5 6 8 8 7 8 9 9 10 10 11 11 10 10 10 11 13 13 13 13 13 14 14 14 14 14 14 13 13 12 27 28 29 29 29
9 7 6 5 4 5 6 7 7 10 10 10 11 11 12 12 12 11 10 10 10 10 10 11 9 10 11 11 12 13 15 16 16 16 13 12 9 21 29 30 31 31 29
10 9 8 7 5 6 6 8 9 13 15 13 12 14 16 15 15 15 13 12 11 9 10 10 11 11 9 9 11 12 13 14 16 16 14 12 17 29 32 34 34 31 26
10 10 10 8 7 7 7 8 10 10 13 14 12 14 18 19 18 16 15 13 12 11 13 12 12 12 13 11 9 9 10 11 13 15 14 13 34 35 36 36 32 28 25
9 9 8 9 8 8 8 8 10 9 12 13 14 16 17 16 16 15 15 15 14 15 16 14 12 12 12 13 11 10 9 9 9 11 13 21 32 34 34 30 27 23 22
8 8 7 9 10 10 10 9 9 9 12 13 15 17 15 15 18 15 15 16 15 17 19 18 14 12 11 12 13 12 9 8 8 9 8 15 25 27 29 30 30 28 26
10 10 11 11 12 11 11 10 11 11 13 15 16 18 18 18 17 18 17 16 20 20 21 19 18 16 15 15 15 12 12 12 11 12 12 15 24 27 27 27 27 28 28
13 14 14 14 15 15 15 12 12 12 15 17 15 15 15 17 18 18 21 21 22 20 21 21 19 19 17 16 17 16 15 16 17 17 19 22 25 27 29 30 30 31 31
14 15 15 15 15 14 15 15 14 15 16 16 16 15 16 17 17 17 19 22 22 23 23 23 21 20 19 18 19 19 18 19 21 22 24 26 28 29 30 31 30 30 30
15 15 15 16 16 15 14 14 14 16 17 16 16 17 18 18 19 18 19 22 23 23 25 24 23 22 22 22 22 22 25 25 26 27 28 29 30 31 32 32 33 33 33
16 17 16 17 15 15 15 15 17 17 17 17 17 17 18 18 17 17 19 21 24 25 28 27 26 24 24 23 24 26 28 28 29 30 31 32 33 33 34 35 35 36 36
20 18 17 18 16 16 15 15 17 17 17 18 18 18 18 19 18 20 20 21 23 29 32 29 29 26 27 28 28 29 31 30 30 30 30 30 32 33 35 37 38 38 38
24 24 19 17 17 18 17 18 18 19 18 19 19 19 18 19 20 20 20 21 22 26 31 30 30 31 32 32 33 33 32 32 32 33 33 34 35 35 37 38 38 39 39
27 23 17 19 22 19 16 19 19 19 20 22 22 20 20 19 20 20 22 22 23 24 27 33 33 35 36 37 35 34 32 34 36 36 36 37 39 40 42 41 42 42 41
14 14 13 14 15 17 15 18 20 20 22 21 20 20 21 21 21 22 23 24 25 26 28 33 36 37 38 37 38 37 36 35 36 37 40 41 41 41 41 42 41 39 40
15 13 14 14 15 17 16 17 19 18 17 18 19 20 22 22 23 25 25 28 29 30 29 30 35 35 35 35 36 35 36 37 37 40 41 39 40 39 39 39 39 40 41
17 17 17 17 16 16 17 17 18 20 21 22 22 22 24 25 26 29 28 29 29 28 29 31 32 33 34 35 38 40 41 41 44 42 37 36 36 40 41 41 40 40 42
19 20 21 20 21 22 22 22 23 23 24 26 26 26 26 26 27 24 25 27 30 30 31 33 35 36 36 37 37 37 43 46 43 37 40 40 42 41 39 38 38 41 44
21 21 22 24 24 24 24 24 24 25 27 27 27 28 23 24 23 22 24 26 28 31 30 32 34 35 35 36 37 41 42 44 44 32 44 43 41 40 39 39 41 45 43
22 22 22 23 23 24 24 24 25 26 26 26 25 26 24 22 24 23 24 24 26 27 28 29 32 34 36 36 38 39 39 39 41 42 44 45 41 40 41 42 44 39 38
23 23 22 21 22 22 21 22 22 23 24 24 23 23 23 23 24 25 25 26 25 25 27 29 31 32 32 32 32 34 36 38 39 39 40 43 41 43 45 41 35 37 44
23 23 23 21 21 21 20 20 21 21 22 22 22 23 23 24 23 22 21 25 27 29 27 29 29 28 29 29 30 33 37 41 44 41 36 39 41 47 43 37 35 42 45
21 21 21 21 20 20 20 20 20 21 23 24 23 23 21 21 24 23 25 27 28 28 27 27 27 27 28 29 31 32 35 40 41 42 34 44 43 44 46 36 42 41 44
Wind_Direction
268 268 271 253 270 280 334 342 28 46 15 352 5 17 21 28 28 29 32 24 19 22 24 25 24 23 23 24 24 23 24 23 23 24 23 20 19 19 17 8 338 317 306
258 262 262 265 271 280 298 337 6 358 330 332 344 357 5 359 6 20 18 29 13 16 22 24 23 23 22 22 22 21 19 20 20 19 18 16 15 14 9 336 304 305 302
258 259 264 267 272 278 284 300 305 310 309 320 332 343 345 346 351 350 360 3 18 14 7 14 19 23 21 19 17 15 12 11 11 12 12 10 6 3 343 292 292 298 307
261 257 260 267 274 276 286 291 289 294 297 307 321 326 327 334 336 341 344 353 4 8 17 8 3 6 7 7 4 2 0 360 360 0 1 1 1 3 272 284 289 296 311
263 264 258 259 257 270 278 282 285 284 293 299 302 310 312 318 324 334 343 348 354 358 1 355 0 0 356 356 354 351 348 345 345 345 348 350 351 247 268 274 286 305 317
263 266 262 255 253 264 271 280 283 283 284 292 297 301 301 308 312 319 327 337 343 352 348 350 352 353 351 345 344 343 341 340 338 336 338 339 246 259 271 281 289 311 325
260 261 262 254 254 258 267 275 283 286 288 288 301 303 300 302 306 314 321 328 335 339 336 340 344 347 347 343 336 333 334 335 334 333 333 332 269 272 278 289 308 318 323
252 255 256 260 258 264 266 269 273 285 290 286 297 302 308 314 317 320 321 324 328 329 328 332 337 341 344 345 345 342 336 330 325 328 329 326 305 303 306 313 318 321 321
248 248 247 263 264 268 268 268 272 281 288 289 288 297 308 313 319 327 328 331 335 330 326 331 338 340 342 343 343 342 334 329 321 320 301 326 322 319 317 315 316 318 318
249 251 257 261 266 271 273 272 277 282 286 288 291 290 298 308 317 320 323 323 325 324 323 328 334 337 340 344 345 344 340 338 332 330 326 326 323 320 319 318 318 317 317
253 256 260 265 268 270 272 275 277 279 283 287 292 300 300 305 309 312 314 316 321 324 324 327 332 337 341 344 345 345 345 344 340 336 333 329 325 322 320 318 317 316 316
254 258 261 264 268 271 273 275 278 279 282 286 291 294 299 305 307 310 310 314 318 320 320 322 327 332 335 339 341 341 342 340 337 333 330 326 324 322 320 319 318 317 317
252 255 257 262 267 270 274 277 279 281 281 284 287 292 296 299 303 307 308 310 314 319 319 321 322 324 328 332 334 335 334 332 331 328 326 324 322 321 320 319 319 317 316
253 257 257 261 264 270 273 276 280 282 284 286 288 291 296 298 300 301 304 308 311 313 313 316 322 321 324 328 330 329 329 328 327 326 324 321 320 319 318 316 315 315 315
260 259 257 260 264 267 270 275 279 281 285 287 289 291 293 296 297 299 301 304 307 308 307 312 314 322 324 325 326 326 325 325 325 325 324 324 323 321 320 318 316 315 315
261 260 262 258 261 266 269 272 278 281 284 287 289 290 292 294 296 298 300 302 304 304 305 310 311 312 315 319 321 322 323 324 324 324 323 322 323 321 321 320 318 317 317
255 259 262 260 262 263 264 269 276 281 283 286 287 289 289 292 295 298 299 301 302 303 303 306 308 310 310 312 316 318 321 323 322 322 323 322 322 321 320 319 318 318 317
248 242 235 245 254 259 257 269 276 280 282 285 286 287 288 291 290 295 298 299 300 302 303 305 307 309 310 312 315 315 316 319 320 323 322 321 321 321 321 322 321 322 321
245 243 252 252 253 261 265 270 276 279 280 281 285 283 286 289 289 292 294 298 300 300 301 303 306 312 312 315 317 319 320 321 322 321 320 321 322 325 325 325 324 323 322
245 255 257 259 260 264 270 273 277 280 283 286 288 288 288 288 289 292 294 299 301 301 305 306 310 312 313 316 316 316 316 318 319 322 324 326 326 325 324 323 323 324 323
254 262 263 264 269 273 275 277 280 283 285 287 288 289 291 292 295 296 299 301 300 306 308 306 309 310 312 314 317 318 317 317 320 324 324 325 325 326 327 327 327 326 324
260 265 266 269 272 276 279 279 282 286 289 290 291 290 289 292 296 300 306 308 307 306 307 308 310 310 312 315 316 317 318 319 318 328 324 324 327 327 328 328 327 325 326
264 266 269 271 275 279 283 285 288 289 289 290 289 295 301 298 299 303 309 311 312 313 313 311 310 312 313 316 317 317 319 320 319 322 323 321 326 326 327 326 326 330 332
264 267 270 273 278 281 285 288 291 294 294 296 296 297 298 297 304 305 306 307 311 315 315 315 315 315 318 320 321 321 321 320 321 323 325 320 325 324 326 327 330 331 330
268 271 273 275 277 282 286 289 293 297 297 298 299 298 299 300 305 309 309 309 311 314 316 317 319 321 323 324 324 322 321 320 320 322 328 324 325 324 326 326 329 329 328
269 273 276 279 280 283 289 294 297 298 298 296 297 301 304 307 306 307 308 309 309 314 318 320 322 324 325 325 326 325 324 320 321 322 329 325 324 328 322 326 327 329 328